WJA1393 KBNA-CYYZ

Flight info

Callsign WJA1393
Flight time 1h 23m
Altitude 37000
Route KRSTA4 OLSIE DCT IIU Q139 RINTE DCT QWERI NUBER6
Aircraft B737/M-SDE2E3FGHIRWXY/LB1

Departure

Time 2026-05-07 00:47
Airport Nashville International Airport (KBNA)

Arrival

Time 2026-05-07 02:11
Airport Toronto Pearson International Airport (CYYZ)
Time Latitude Longitude Altitude Speed Heading
2026-05-07 00:22 36.12651 -86.67146 568 ft 0 kts 223°
2026-05-07 00:36 36.12659 -86.67136 575 ft 4 kts 223°
2026-05-07 00:36 36.12675 -86.67118 571 ft 4 kts 233°
2026-05-07 00:36 36.12682 -86.67090 574 ft 4 kts 284°
2026-05-07 00:37 36.12675 -86.67070 571 ft 0 kts 310°
2026-05-07 00:40 36.12677 -86.67073 568 ft 2 kts 310°
2026-05-07 00:40 36.12695 -86.67100 568 ft 7 kts 310°
2026-05-07 00:40 36.12732 -86.67153 570 ft 9 kts 310°
2026-05-07 00:41 36.12778 -86.67219 572 ft 11 kts 313°
2026-05-07 00:41 36.12824 -86.67294 574 ft 11 kts 264°
2026-05-07 00:41 36.12775 -86.67362 574 ft 11 kts 225°
2026-05-07 00:41 36.12733 -86.67434 578 ft 11 kts 265°
2026-05-07 00:42 36.12779 -86.67513 573 ft 12 kts 314°
2026-05-07 00:42 36.12846 -86.67599 572 ft 15 kts 312°
2026-05-07 00:42 36.12927 -86.67706 570 ft 18 kts 313°
2026-05-07 00:42 36.13014 -86.67819 572 ft 18 kts 314°
2026-05-07 00:43 36.13079 -86.67923 572 ft 13 kts 266°
2026-05-07 00:43 36.13003 -86.67978 572 ft 13 kts 198°
2026-05-07 00:43 36.12919 -86.68011 573 ft 13 kts 197°
2026-05-07 00:43 36.12836 -86.68043 575 ft 13 kts 197°
2026-05-07 00:44 36.12739 -86.68078 575 ft 17 kts 196°
2026-05-07 00:44 36.12602 -86.68128 575 ft 24 kts 197°
2026-05-07 00:44 36.12441 -86.68186 573 ft 23 kts 196°
2026-05-07 00:44 36.12291 -86.68241 580 ft 22 kts 196°
2026-05-07 00:45 36.12142 -86.68293 577 ft 22 kts 196°
2026-05-07 00:45 36.11998 -86.68344 576 ft 21 kts 196°
2026-05-07 00:45 36.11858 -86.68394 580 ft 21 kts 195°
2026-05-07 00:45 36.11743 -86.68455 581 ft 14 kts 241°
2026-05-07 00:46 36.11757 -86.68557 577 ft 13 kts 285°
2026-05-07 00:46 36.11785 -86.68637 577 ft 6 kts 326°
2026-05-07 00:46 36.11801 -86.68634 578 ft 2 kts 17°
2026-05-07 00:46 36.11879 -86.68604 575 ft 39 kts 18°
2026-05-07 00:47 36.12401 -86.68398 568 ft 117 kts 18°
2026-05-07 00:47 36.13357 -86.68025 744 ft 160 kts 17°
2026-05-07 00:47 36.14425 -86.67624 1575 ft 163 kts 18°
2026-05-07 00:47 36.15550 -86.67147 2330 ft 175 kts 19°
2026-05-07 00:48 36.16770 -86.66619 2889 ft 201 kts 19°
2026-05-07 00:48 36.18172 -86.66013 3256 ft 227 kts 19°
2026-05-07 00:48 36.19722 -86.65342 3796 ft 249 kts 18°
2026-05-07 00:48 36.21429 -86.64605 4484 ft 266 kts 17°
2026-05-07 00:49 36.23225 -86.63829 5328 ft 278 kts 15°
2026-05-07 00:49 36.25073 -86.63030 6302 ft 283 kts 13°
2026-05-07 00:49 36.26935 -86.62227 7205 ft 289 kts 11°
2026-05-07 00:49 36.28872 -86.61395 8022 ft 299 kts 12°
2026-05-07 00:50 36.30848 -86.60503 8958 ft 305 kts 13°
2026-05-07 00:50 36.32855 -86.59545 9841 ft 312 kts 13°
2026-05-07 00:50 36.34896 -86.58563 10494 ft 325 kts 13°
2026-05-07 00:50 36.37082 -86.57512 10930 ft 345 kts 14°
2026-05-07 00:51 36.39353 -86.56417 11630 ft 352 kts 14°
2026-05-07 00:51 36.41653 -86.55300 12520 ft 356 kts 14°
2026-05-07 00:51 36.43959 -86.54185 13269 ft 364 kts 13°
2026-05-07 00:51 36.46357 -86.53030 14036 ft 372 kts 13°
2026-05-07 00:52 36.48777 -86.51860 14899 ft 374 kts 12°
2026-05-07 00:52 36.51219 -86.50680 15749 ft 378 kts 12°
2026-05-07 00:52 36.53658 -86.49502 16547 ft 383 kts 11°
2026-05-07 00:52 36.56161 -86.48296 17382 ft 387 kts 11°
2026-05-07 00:53 36.58691 -86.47073 18214 ft 392 kts 11°
2026-05-07 00:53 36.61250 -86.45787 18907 ft 398 kts 12°
2026-05-07 00:53 36.63832 -86.44448 19603 ft 404 kts 12°
2026-05-07 00:53 36.66446 -86.43096 20285 ft 409 kts 11°
2026-05-07 00:54 36.69064 -86.41750 20960 ft 414 kts 11°
2026-05-07 00:54 36.70877 -86.40820 21435 ft 418 kts 11°
2026-05-07 00:54 36.74417 -86.38909 22355 ft 424 kts 15°
2026-05-07 00:54 36.77115 -86.37230 22777 ft 439 kts 17°
2026-05-07 00:55 36.79844 -86.35441 23403 ft 446 kts 17°
2026-05-07 00:55 36.82591 -86.33611 24025 ft 449 kts 17°
2026-05-07 00:55 36.85329 -86.31792 24602 ft 452 kts 17°
2026-05-07 00:55 36.88130 -86.29948 25155 ft 456 kts 17°
2026-05-07 00:56 36.90968 -86.28094 25690 ft 461 kts 16°
2026-05-07 00:56 36.93826 -86.26237 26262 ft 465 kts 16°
2026-05-07 00:56 36.96735 -86.24355 26608 ft 475 kts 16°
2026-05-07 00:56 36.98696 -86.23086 26866 ft 480 kts 16°
2026-05-07 00:57 37.02651 -86.20518 27594 ft 484 kts 16°
2026-05-07 00:57 37.05662 -86.18556 28156 ft 487 kts 16°
2026-05-07 00:57 37.07659 -86.17254 28490 ft 489 kts 16°
2026-05-07 00:57 37.10681 -86.15281 29108 ft 490 kts 16°
2026-05-07 00:58 37.14706 -86.12654 29783 ft 495 kts 16°
2026-05-07 00:58 37.16780 -86.11302 30044 ft 498 kts 16°
2026-05-07 00:58 37.19847 -86.09302 30342 ft 506 kts 15°
2026-05-07 00:58 37.23009 -86.07241 30619 ft 512 kts 15°
2026-05-07 00:59 37.29400 -86.03445 31535 ft 507 kts 11°
2026-05-07 00:59 37.32639 -86.01668 31967 ft 507 kts 10°
2026-05-07 00:59 37.35882 -85.99904 32429 ft 507 kts 10°
2026-05-07 01:00 37.39123 -85.98129 32955 ft 506 kts 10°
2026-05-07 01:00 37.42308 -85.96364 33531 ft 505 kts 10°
2026-05-07 01:00 37.45525 -85.94570 33814 ft 509 kts 10°
2026-05-07 01:00 37.48782 -85.92745 34095 ft 512 kts 10°
2026-05-07 01:01 37.52043 -85.90905 34479 ft 511 kts 10°
2026-05-07 01:01 37.55280 -85.89066 34973 ft 507 kts 10°
2026-05-07 01:01 37.58440 -85.87266 35462 ft 502 kts
2026-05-07 01:01 37.61622 -85.85456 35874 ft 500 kts
2026-05-07 01:02 37.64792 -85.83658 36306 ft 498 kts
2026-05-07 01:02 37.67962 -85.81864 36632 ft 498 kts
2026-05-07 01:02 37.71133 -85.80069 36951 ft 498 kts
2026-05-07 01:03 37.77497 -85.76467 37028 ft 503 kts
2026-05-07 01:03 37.83819 -85.72855 37013 ft 495 kts
2026-05-07 01:04 37.90065 -85.69288 37076 ft 495 kts
2026-05-07 01:04 37.96384 -85.65686 37039 ft 498 kts
2026-05-07 01:05 38.02685 -85.62076 37035 ft 499 kts
2026-05-07 01:05 38.09043 -85.58426 37039 ft 501 kts
2026-05-07 01:06 38.15335 -85.54481 37032 ft 512 kts 12°
2026-05-07 01:06 38.21637 -85.50125 37031 ft 515 kts 13°
2026-05-07 01:07 38.27925 -85.45760 37030 ft 514 kts 12°
2026-05-07 01:07 38.34192 -85.41469 37026 ft 513 kts 12°
2026-05-07 01:08 38.40492 -85.37173 37026 ft 510 kts 12°
2026-05-07 01:08 38.46707 -85.32927 37020 ft 508 kts 12°
2026-05-07 01:09 38.52943 -85.28657 37022 ft 506 kts 12°
2026-05-07 01:09 38.59119 -85.24420 37049 ft 505 kts 11°
2026-05-07 01:10 38.65301 -85.20172 37036 ft 506 kts 11°
2026-05-07 01:10 38.71521 -85.15886 37022 ft 506 kts 11°
2026-05-07 01:11 38.77699 -85.11617 37027 ft 507 kts 12°
2026-05-07 01:11 38.83923 -85.07307 37041 ft 509 kts 11°
2026-05-07 01:12 38.90136 -85.02994 37020 ft 509 kts 11°
2026-05-07 01:12 38.96375 -84.98652 37025 ft 509 kts 11°
2026-05-07 01:13 39.02626 -84.94296 37070 ft 509 kts 11°
2026-05-07 01:13 39.08833 -84.89962 37031 ft 509 kts 11°
2026-05-07 01:14 39.15077 -84.85587 37023 ft 508 kts 11°
2026-05-07 01:14 39.21244 -84.81257 37021 ft 507 kts 11°
2026-05-07 01:15 39.27446 -84.76898 37070 ft 507 kts 11°
2026-05-07 01:15 39.33663 -84.72522 37047 ft 508 kts 11°
2026-05-07 01:16 39.39844 -84.68158 37027 ft 508 kts 11°
2026-05-07 01:16 39.46019 -84.63787 37084 ft 507 kts 11°
2026-05-07 01:17 39.52219 -84.59393 37035 ft 508 kts 11°
2026-05-07 01:17 39.58420 -84.54988 37048 ft 507 kts 11°
2026-05-07 01:18 39.64604 -84.50585 37044 ft 507 kts 11°
2026-05-07 01:18 39.70769 -84.46188 37070 ft 507 kts 12°
2026-05-07 01:19 39.76969 -84.41759 37048 ft 507 kts 12°
2026-05-07 01:19 39.83125 -84.37347 37027 ft 507 kts 12°
2026-05-07 01:20 39.89303 -84.32912 37086 ft 507 kts 12°
2026-05-07 01:20 39.95489 -84.28465 37009 ft 507 kts 12°
2026-05-07 01:21 40.01635 -84.24026 37023 ft 506 kts 12°
2026-05-07 01:21 40.07806 -84.19559 37025 ft 506 kts 12°
2026-05-07 01:22 40.13927 -84.15123 37050 ft 506 kts 12°
2026-05-07 01:22 40.20091 -84.10646 37033 ft 506 kts 12°
2026-05-07 01:23 40.26266 -84.06150 37026 ft 506 kts 12°
2026-05-07 01:23 40.32395 -84.01703 37106 ft 505 kts 12°
2026-05-07 01:24 40.38578 -83.97285 37028 ft 505 kts 12°
2026-05-07 01:24 40.44714 -83.92901 37030 ft 505 kts 12°
2026-05-07 01:25 40.50896 -83.88462 37021 ft 504 kts 12°
2026-05-07 01:25 40.57018 -83.84051 37023 ft 503 kts 12°
2026-05-07 01:26 40.63167 -83.79611 37018 ft 503 kts 12°
2026-05-07 01:26 40.69327 -83.75155 37012 ft 503 kts 12°
2026-05-07 01:27 40.75434 -83.70727 37053 ft 503 kts 12°
2026-05-07 01:27 40.81602 -83.66249 37018 ft 504 kts 12°
2026-05-07 01:28 40.87719 -83.61794 37002 ft 504 kts 13°
2026-05-07 01:28 40.93874 -83.57302 37001 ft 504 kts 13°
2026-05-07 01:29 41.00013 -83.52818 37001 ft 506 kts 13°
2026-05-07 01:29 41.06169 -83.48270 36999 ft 505 kts 13°
2026-05-07 01:30 41.12298 -83.43778 36997 ft 505 kts 13°
2026-05-07 01:30 41.18419 -83.39287 37058 ft 505 kts 14°
2026-05-07 01:31 41.24584 -83.34748 37016 ft 505 kts 14°
2026-05-07 01:31 41.30706 -83.30221 37008 ft 505 kts 14°
2026-05-07 01:32 41.36870 -83.25653 37086 ft 505 kts 14°
2026-05-07 01:32 41.42989 -83.21112 37014 ft 506 kts 15°
2026-05-07 01:33 41.49145 -83.16531 36994 ft 506 kts 15°
2026-05-07 01:33 41.55256 -83.11971 36991 ft 505 kts 15°
2026-05-07 01:34 41.61398 -83.07373 36996 ft 506 kts 15°
2026-05-07 01:34 41.67506 -83.02812 36996 ft 505 kts 16°
2026-05-07 01:35 41.73645 -82.98199 36997 ft 505 kts 16°
2026-05-07 01:35 41.79749 -82.93608 37049 ft 505 kts 17°
2026-05-07 01:36 41.85889 -82.88978 36998 ft 505 kts 17°
2026-05-07 01:36 41.92029 -82.84338 36992 ft 505 kts 17°
2026-05-07 01:37 41.98118 -82.79726 37013 ft 504 kts 18°
2026-05-07 01:37 42.04223 -82.75079 36990 ft 502 kts 18°
2026-05-07 01:38 42.10258 -82.70489 36985 ft 500 kts 17°
2026-05-07 01:38 42.16325 -82.65873 36998 ft 499 kts 17°
2026-05-07 01:39 42.22341 -82.61281 36993 ft 499 kts 18°
2026-05-07 01:39 42.28382 -82.56655 36995 ft 497 kts 18°
2026-05-07 01:40 42.34365 -82.52062 36992 ft 496 kts 18°
2026-05-07 01:40 42.40385 -82.47435 37015 ft 496 kts 19°
2026-05-07 01:41 42.46386 -82.42780 36999 ft 495 kts 19°
2026-05-07 01:41 42.52356 -82.38181 36978 ft 495 kts 19°
2026-05-07 01:42 42.58344 -82.33558 36995 ft 494 kts 19°
2026-05-07 01:42 42.64297 -82.28938 36999 ft 495 kts 19°
2026-05-07 01:43 42.69878 -82.23212 36998 ft 521 kts 45°
2026-05-07 01:43 42.74105 -82.15214 36996 ft 525 kts 50°
2026-05-07 01:44 42.78325 -82.07094 37009 ft 524 kts 48°
2026-05-07 01:44 42.82420 -81.98862 37032 ft 525 kts 56°
2026-05-07 01:45 42.85937 -81.90148 37008 ft 525 kts 58°
2026-05-07 01:45 42.89408 -81.81367 36993 ft 524 kts 57°
2026-05-07 01:46 42.92934 -81.72698 36659 ft 526 kts 57°
2026-05-07 01:46 42.94727 -81.68339 36187 ft 525 kts 57°
2026-05-07 01:46 42.96492 -81.64044 35629 ft 525 kts 57°
2026-05-07 01:46 42.98288 -81.59668 35019 ft 527 kts 57°
2026-05-07 01:47 43.00089 -81.55266 34393 ft 530 kts 57°
2026-05-07 01:47 43.01893 -81.50844 33701 ft 533 kts 57°
2026-05-07 01:47 43.03683 -81.46445 32988 ft 534 kts 57°
2026-05-07 01:47 43.05490 -81.41996 32317 ft 534 kts 57°
2026-05-07 01:48 43.07291 -81.37554 31630 ft 534 kts 58°
2026-05-07 01:48 43.09065 -81.33095 30981 ft 533 kts 58°
2026-05-07 01:48 43.10228 -81.30130 30563 ft 532 kts 59°
2026-05-07 01:48 43.11968 -81.25662 29699 ft 532 kts 59°
2026-05-07 01:49 43.13708 -81.21177 28806 ft 530 kts 59°
2026-05-07 01:49 43.15435 -81.16721 27947 ft 527 kts 59°
2026-05-07 01:49 43.17122 -81.12371 27347 ft 519 kts 60°
2026-05-07 01:49 43.18808 -81.08024 26689 ft 512 kts 60°
2026-05-07 01:50 43.20481 -81.03713 26061 ft 506 kts 60°
2026-05-07 01:50 43.22106 -80.99522 25453 ft 500 kts 60°
2026-05-07 01:50 43.23724 -80.95344 24841 ft 493 kts 60°
2026-05-07 01:50 43.25317 -80.91223 24233 ft 480 kts 60°
2026-05-07 01:51 43.26859 -80.87227 23674 ft 468 kts 60°
2026-05-07 01:51 43.28371 -80.83303 22939 ft 460 kts 60°
2026-05-07 01:51 43.29834 -80.79503 22321 ft 449 kts 61°
2026-05-07 01:51 43.31282 -80.75738 21735 ft 439 kts 61°
2026-05-07 01:52 43.32687 -80.72078 21160 ft 430 kts 61°
2026-05-07 01:52 43.34072 -80.68467 20600 ft 424 kts 61°
2026-05-07 01:52 43.35442 -80.64890 20054 ft 422 kts 61°
2026-05-07 01:52 43.36795 -80.61356 19506 ft 423 kts 61°
2026-05-07 01:53 43.38182 -80.57726 18948 ft 429 kts 61°
2026-05-07 01:53 43.39573 -80.54080 18350 ft 428 kts 61°
2026-05-07 01:53 43.40936 -80.50500 17693 ft 417 kts 61°
2026-05-07 01:53 43.42262 -80.47012 17122 ft 406 kts 61°
2026-05-07 01:54 43.43539 -80.43653 16609 ft 395 kts 61°
2026-05-07 01:54 43.44801 -80.40326 16078 ft 386 kts 61°
2026-05-07 01:54 43.46018 -80.37058 15591 ft 382 kts 64°
2026-05-07 01:54 43.47032 -80.33682 15360 ft 385 kts 68°
2026-05-07 01:55 43.47971 -80.30158 14884 ft 395 kts 69°
2026-05-07 01:55 43.48894 -80.26672 14539 ft 383 kts 69°
2026-05-07 01:55 43.49806 -80.23314 14373 ft 363 kts 68°
2026-05-07 01:55 43.50686 -80.20130 14209 ft 346 kts 68°
2026-05-07 01:56 43.51527 -80.17076 13879 ft 336 kts 68°
2026-05-07 01:56 43.52320 -80.14123 13481 ft 329 kts 69°
2026-05-07 01:56 43.53104 -80.11179 13081 ft 323 kts 69°
2026-05-07 01:56 43.53869 -80.08303 12706 ft 321 kts 69°
2026-05-07 01:57 43.54637 -80.05416 12321 ft 320 kts 69°
2026-05-07 01:57 43.55403 -80.02534 11934 ft 319 kts 69°
2026-05-07 01:57 43.56167 -79.99664 11554 ft 317 kts 69°
2026-05-07 01:57 43.56918 -79.96839 11168 ft 316 kts 69°
2026-05-07 01:58 43.57672 -79.93998 10781 ft 315 kts 69°
2026-05-07 01:58 43.58422 -79.91167 10412 ft 313 kts 69°
2026-05-07 01:58 43.59167 -79.88349 10143 ft 307 kts 70°
2026-05-07 01:58 43.59564 -79.85506 9945 ft 299 kts 89°
2026-05-07 01:59 43.59581 -79.82681 9579 ft 297 kts 91°
2026-05-07 01:59 43.59572 -79.79848 9210 ft 295 kts 90°
2026-05-07 01:59 43.59567 -79.77014 9029 ft 295 kts 90°
2026-05-07 01:59 43.59573 -79.74186 8752 ft 298 kts 90°
2026-05-07 02:00 43.59589 -79.71265 8279 ft 301 kts 89°
2026-05-07 02:00 43.59608 -79.68459 8110 ft 291 kts 89°
2026-05-07 02:00 43.59626 -79.65719 8001 ft 279 kts 88°
2026-05-07 02:00 43.59643 -79.63105 7980 ft 265 kts 89°
2026-05-07 02:01 43.59650 -79.60619 7933 ft 254 kts 89°
2026-05-07 02:01 43.59655 -79.58166 7586 ft 256 kts 88°
2026-05-07 02:01 43.59683 -79.55701 7266 ft 255 kts 81°
2026-05-07 02:01 43.60291 -79.53509 6995 ft 244 kts 49°
2026-05-07 02:02 43.61365 -79.51743 6745 ft 238 kts 40°
2026-05-07 02:02 43.62507 -79.50101 6504 ft 235 kts 39°
2026-05-07 02:02 43.63645 -79.48488 6254 ft 233 kts 39°
2026-05-07 02:02 43.64771 -79.46882 5973 ft 232 kts 39°
2026-05-07 02:03 43.65877 -79.45295 5715 ft 231 kts 40°
2026-05-07 02:03 43.66987 -79.43691 5433 ft 230 kts 40°
2026-05-07 02:03 43.68089 -79.42093 5164 ft 228 kts 41°
2026-05-07 02:03 43.69189 -79.40492 4832 ft 230 kts 42°
2026-05-07 02:04 43.70274 -79.38907 4600 ft 228 kts 41°
2026-05-07 02:04 43.71361 -79.37318 4322 ft 227 kts 42°
2026-05-07 02:04 43.72444 -79.35735 4076 ft 226 kts 42°
2026-05-07 02:04 43.73681 -79.34457 4014 ft 217 kts 13°
2026-05-07 02:05 43.75111 -79.34347 4002 ft 201 kts 339°
2026-05-07 02:05 43.76292 -79.35238 3744 ft 196 kts 321°
2026-05-07 02:05 43.77395 -79.36388 3383 ft 200 kts 320°
2026-05-07 02:05 43.78502 -79.37569 3085 ft 200 kts 320°
2026-05-07 02:06 43.79394 -79.39014 3012 ft 199 kts 290°
2026-05-07 02:06 43.79496 -79.40823 3028 ft 188 kts 263°
2026-05-07 02:06 43.79129 -79.42518 2987 ft 183 kts 240°
2026-05-07 02:06 43.78295 -79.43828 3002 ft 176 kts 233°
2026-05-07 02:07 43.77530 -79.45088 3019 ft 172 kts 233°
2026-05-07 02:07 43.75910 -79.47528 2996 ft 171 kts 231°
2026-05-07 02:07 43.75080 -79.48737 2821 ft 173 kts 230°
2026-05-07 02:08 43.74263 -79.49923 2596 ft 169 kts 230°
2026-05-07 02:08 43.73448 -79.51107 2355 ft 171 kts 230°
2026-05-07 02:08 43.72637 -79.52286 2114 ft 171 kts 230°
2026-05-07 02:08 43.71829 -79.53457 1901 ft 159 kts 230°
2026-05-07 02:09 43.71107 -79.54505 1660 ft 143 kts 231°
2026-05-07 02:09 43.70451 -79.55461 1448 ft 133 kts 230°
2026-05-07 02:09 43.69817 -79.56386 1283 ft 133 kts 229°
2026-05-07 02:09 43.69176 -79.57316 1083 ft 133 kts 228°
2026-05-07 02:10 43.68556 -79.58219 909 ft 130 kts 230°
2026-05-07 02:10 43.67929 -79.59145 732 ft 135 kts 229°
2026-05-07 02:10 43.67285 -79.60081 568 ft 131 kts 226°
2026-05-07 02:10 43.66729 -79.60882 561 ft 94 kts 226°
2026-05-07 02:11 43.66471 -79.61281 564 ft 39 kts 237°
2026-05-07 02:11 43.66389 -79.61552 557 ft 23 kts 252°
2026-05-07 02:11 43.66405 -79.61729 564 ft 19 kts 315°
2026-05-07 02:11 43.66498 -79.61848 559 ft 18 kts 316°
2026-05-07 02:12 43.66585 -79.61964 558 ft 17 kts 315°
2026-05-07 02:12 43.66677 -79.61996 568 ft 15 kts 36°
2026-05-07 02:12 43.66755 -79.61900 565 ft 16 kts 42°
2026-05-07 02:12 43.66837 -79.61796 565 ft 16 kts 42°
2026-05-07 02:13 43.66918 -79.61693 572 ft 16 kts 43°
2026-05-07 02:13 43.66998 -79.61592 568 ft 15 kts 42°
2026-05-07 02:13 43.67076 -79.61494 569 ft 15 kts 42°
2026-05-07 02:13 43.67159 -79.61389 568 ft 16 kts 43°
2026-05-07 02:14 43.67227 -79.61274 568 ft 14 kts 52°
2026-05-07 02:14 43.67305 -79.61298 564 ft 13 kts 316°
2026-05-07 02:14 43.67370 -79.61383 561 ft 14 kts 316°
2026-05-07 02:14 43.67443 -79.61479 562 ft 16 kts 316°
2026-05-07 02:15 43.67531 -79.61592 568 ft 19 kts 317°
2026-05-07 02:15 43.67629 -79.61719 562 ft 20 kts 317°
2026-05-07 02:15 43.67727 -79.61847 562 ft 19 kts 316°
2026-05-07 02:15 43.67822 -79.61971 562 ft 18 kts 316°
2026-05-07 02:16 43.67920 -79.62060 563 ft 16 kts 360°
2026-05-07 02:16 43.68012 -79.61992 569 ft 15 kts 16°
2026-05-07 02:16 43.68093 -79.61914 564 ft 14 kts 46°
2026-05-07 02:16 43.68158 -79.61826 564 ft 13 kts 29°
2026-05-07 02:17 43.68242 -79.61827 565 ft 11 kts 352°
2026-05-07 02:17 43.68287 -79.61833 566 ft 3 kts 357°
2026-05-07 02:17 43.68305 -79.61845 562 ft 3 kts 316°
2026-05-07 02:17 43.68314 -79.61874 563 ft 4 kts 289°
2026-05-07 02:18 43.68323 -79.61916 565 ft 3 kts 286°
2026-05-07 02:18 43.68329 -79.61941 563 ft 0 kts 287°
2026-05-07 02:18 43.68330 -79.61944 562 ft 0 kts 287°
2026-05-07 02:18 43.68330 -79.61946 562 ft 0 kts 287°